| time (UTC) | temp F | wind direction | speed knots | gust knots | rain 1hr in | rain 24hr in | rain mn in | humidity % | barometer mb |
| 20260502233054 | 54 | 0 | 0.0 | 0.0 | 0.00 | 0.21 | 0.21 | 89 | 1012.4 |
| 20260502231556 | 54 | 0 | 0.0 | 0.0 | 0.00 | 0.21 | 0.21 | 88 | 1012.2 |
| 20260502230113 | 55 | 0 | 0.0 | 0.0 | 0.00 | 0.21 | 0.21 | 88 | 1012.1 |
| 20260502224553 | 55 | 0 | 0.0 | 0.0 | 0.00 | 0.21 | 0.21 | 87 | 1012.1 |
| 20260502223053 | 55 | 0 | 0.0 | 0.0 | 0.00 | 0.21 | 0.21 | 86 | 1012.1 |
| 20260502221554 | 55 | 0 | 0.0 | 0.0 | 0.00 | 0.21 | 0.21 | 86 | 1012.1 |
| 20260502214550 | 56 | 0 | 0.0 | 0.0 | 0.00 | 0.21 | 0.21 | 83 | 1011.7 |
| 20260502213053 | 56 | 0 | 0.0 | 0.0 | 0.00 | 0.21 | 0.21 | 84 | 1011.9 |
| 20260502211555 | 56 | 0 | 0.0 | 0.0 | 0.00 | 0.21 | 0.21 | 84 | 1011.7 |
| 20260502210059 | 56 | 0 | 0.0 | 0.0 | 0.00 | 0.21 | 0.21 | 83 | 1011.9 |
| 20260502204554 | 56 | 0 | 0.0 | 0.0 | 0.00 | 0.21 | 0.21 | 83 | 1012.0 |
| 20260502203054 | 56 | 0 | 0.0 | 0.0 | 0.00 | 0.21 | 0.21 | 84 | 1012.0 |
| 20260502201602 | 56 | 0 | 0.0 | 0.0 | 0.00 | 0.21 | 0.21 | 83 | 1011.7 |
| 20260502200101 | 56 | 0 | 0.0 | 0.0 | 0.00 | 0.21 | 0.21 | 84 | 1011.9 |
| 20260502194617 | 56 | 0 | 0.0 | 0.0 | 0.00 | 0.21 | 0.21 | 86 | 1012.1 |
| 20260502193101 | 55 | 0 | 0.0 | 2.6 | 0.00 | 0.21 | 0.21 | 86 | 1012.5 |
| 20260502191559 | 55 | 0 | 0.0 | 0.9 | 0.00 | 0.21 | 0.21 | 89 | 1012.5 |
| 20260502190107 | 55 | 0 | 0.0 | 0.0 | 0.00 | 0.21 | 0.21 | 88 | 1012.5 |
| 20260502184557 | 54 | 0 | 0.0 | 2.6 | 0.00 | 0.21 | 0.21 | 89 | 1012.9 |
| 20260502183054 | 54 | 304 | 0.0 | 0.9 | 0.00 | 0.21 | 0.21 | 92 | 1012.8 |
| 20260502181552 | 53 | 0 | 0.0 | 0.9 | 0.00 | 0.21 | 0.21 | 92 | 1013.1 |
| 20260502180119 | 53 | 0 | 0.9 | 2.6 | 0.00 | 0.21 | 0.21 | 93 | 1013.2 |
| 20260502163051 | 52 | 0 | 0.0 | 0.0 | 0.02 | 0.20 | 0.20 | 95 | 1014.0 |
| 20260502161554 | 52 | 0 | 0.0 | 0.0 | 0.02 | 0.20 | 0.20 | 95 | 1014.3 |
| 20260502151600 | 52 | 0 | 0.0 | 0.0 | 0.03 | 0.18 | 0.18 | 96 | 1014.1 |
| 20260502123058 | 51 | 321 | 0.0 | 1.7 | 0.02 | 0.03 | 0.03 | 92 | 1012.7 |
| 20260502121603 | 51 | 0 | 0.0 | 2.6 | 0.02 | 0.02 | 0.02 | 91 | 1012.7 |
| 20260502114556 | 52 | 0 | 0.0 | 0.9 | 0.01 | 0.01 | 0.01 | 89 | 1012.9 |
| 20260502113057 | 52 | 0 | 0.0 | 1.7 | 0.01 | 0.01 | 0.01 | 88 | 1012.9 |
| 20260502111601 | 53 | 316 | 0.0 | 0.9 | 0.00 | 0.00 | 0.00 | 87 | 1013.1 |
| 20260502110051 | 53 | 309 | 0.0 | 2.6 | 0.00 | 0.00 | 0.00 | 85 | 1013.1 |
| 20260502104557 | 54 | 0 | 0.0 | 0.9 | 0.00 | 0.00 | 0.00 | 83 | 1013.1 |
| 20260502103105 | 54 | 12 | 0.0 | 0.9 | 0.00 | 0.00 | 0.00 | 83 | 1013.1 |
| 20260502101606 | 54 | 0 | 0.0 | 0.9 | 0.00 | 0.00 | 0.00 | 84 | 1013.0 |
| 20260502100110 | 54 | 0 | 0.0 | 0.9 | 0.00 | 0.00 | 0.00 | 87 | 1013.1 |
| 20260502080105 | 53 | 0 | 0.0 | 0.9 | 0.00 | 0.00 | 0.00 | 90 | 1012.5 |
| 20260502070054 | 53 | 0 | 0.0 | 0.0 | 0.00 | 0.00 | 0.00 | 90 | 1012.1 |
| 20260502064550 | 53 | 0 | 0.0 | 0.0 | 0.00 | 0.00 | 0.00 | 90 | 1012.2 |
| 20260502063054 | 53 | 0 | 0.0 | 0.0 | 0.00 | 0.00 | 0.00 | 90 | 1012.2 |
| 20260502061551 | 53 | 0 | 0.0 | 0.0 | 0.00 | 0.00 | 0.00 | 89 | 1012.3 |
| 20260502060056 | 53 | 0 | 0.0 | 0.0 | 0.00 | 0.00 | 0.00 | 89 | 1012.4 |
| 20260502054553 | 53 | 0 | 0.0 | 0.0 | 0.00 | 0.00 | 0.00 | 89 | 1012.5 |
| 20260502053103 | 53 | 0 | 0.0 | 0.0 | 0.00 | 0.00 | 0.00 | 89 | 1012.7 |
| 20260502051601 | 53 | 0 | 0.0 | 0.0 | 0.00 | 0.00 | 0.00 | 89 | 1012.9 |
| 20260502050056 | 53 | 0 | 0.0 | 0.0 | 0.00 | 0.00 | 0.00 | 89 | 1013.0 |
| 20260502044551 | 53 | 0 | 0.0 | 0.0 | 0.00 | 0.00 | 0.00 | 89 | 1013.0 |
| 20260502043100 | 53 | 0 | 0.0 | 0.0 | 0.00 | 0.00 | 0.00 | 88 | 1013.2 |
| 20260502041552 | 53 | 0 | 0.0 | 0.0 | 0.00 | 0.00 | 0.00 | 88 | 1013.2 |
| 20260502040055 | 53 | 0 | 0.0 | 0.0 | 0.00 | 0.00 | 0.00 | 89 | 1013.2 |
| 20260502034551 | 53 | 0 | 0.0 | 0.0 | 0.00 | 0.00 | 0.00 | 89 | 1013.4 |
| 20260502033055 | 53 | 0 | 0.0 | 0.0 | 0.00 | 0.00 | 0.00 | 89 | 1013.2 |
| 20260502031553 | 53 | 0 | 0.0 | 0.0 | 0.00 | 0.00 | 0.00 | 88 | 1013.3 |
| 20260502030057 | 53 | 0 | 0.0 | 0.0 | 0.00 | 0.00 | 0.00 | 88 | 1013.6 |
| 20260502024551 | 54 | 0 | 0.0 | 0.0 | 0.00 | 0.00 | 0.00 | 88 | 1013.6 |
| 20260502023057 | 54 | 0 | 0.0 | 0.0 | 0.00 | 0.00 | 0.00 | 87 | 1013.6 |
| 20260502021550 | 54 | 0 | 0.0 | 0.0 | 0.00 | 0.00 | 0.00 | 87 | 1013.8 |
| 20260502020052 | 54 | 0 | 0.0 | 0.0 | 0.00 | 0.00 | 0.00 | 87 | 1013.8 |
| 20260502014557 | 54 | 0 | 0.0 | 0.0 | 0.00 | 0.00 | 0.00 | 87 | 1013.6 |
| 20260502013056 | 54 | 0 | 0.0 | 0.0 | 0.00 | 0.00 | 0.00 | 86 | 1013.5 |
| 20260502011605 | 54 | 0 | 0.0 | 0.0 | 0.00 | 0.00 | 0.00 | 86 | 1013.7 |
| 20260502010051 | 54 | 0 | 0.0 | 0.0 | 0.00 | 0.00 | 0.00 | 86 | 1013.1 |
| 20260502004600 | 54 | 0 | 0.0 | 0.9 | 0.00 | 0.00 | 0.00 | 85 | 1013.2 |
| 20260502003050 | 54 | 0 | 0.0 | 0.9 | 0.00 | 0.00 | 0.00 | 84 | 1013.0 |
| 20260502001550 | 54 | 0 | 0.0 | 0.0 | 0.00 | 0.00 | 0.00 | 83 | 1012.8 |
| 20260502000107 | 54 | 0 | 0.0 | 0.9 | 0.00 | 0.00 | 0.00 | 81 | 1012.9 |
| 20260501234551 | 55 | 0 | 0.0 | 0.0 | 0.00 | 0.00 | 0.00 | 79 | 1012.9 |